Location: Delburen
(52.8728°N, 5.5936°E)
Time: 01:43:59
(UTC+00:00)

Daily predictions for brighter satellites

Satellite Brightness Start Highest point End
(mag) Time Altitude Azimuth Time Altitude Azimuth Time Altitude Azimuth
Cosmos 1766 3.2 00:01:38 10° NNW 00:05:36 73° W 00:06:41 45° S
Okean 3 4.0 00:05:48 32° SW 00:07:25 49° WNW 00:11:33 10° N
Cosmos 1867 3.8 00:03:46 18° WSW 00:07:48 68° NW 00:13:19 10° NE
NOSS 2-1 (C) 4.4 00:06:50 10° NW 00:11:25 47° SW 00:14:12 28° S
COSMOS 2487 2.6 00:11:17 10° NW 00:14:34 48° WSW 00:14:48 47° WSW
Cosmos 2227 Rocket 2.9 00:11:31 10° NNW 00:17:04 52° NE 00:22:35 10° SE
Helios 1A 3.1 00:16:33 31° SSE 00:18:28 73° ENE 00:22:38 10° NNW
Cosmos 2297 Rocket 2.5 00:14:13 10° NNW 00:19:54 66° NE 00:25:29 10° SE
Cosmos 1934 Rocket 4.4 00:19:35 10° NNW 00:25:25 47° W 00:28:27 26° SSW
Cosmos 1470 2.9 00:22:11 10° N 00:26:08 71° E 00:27:46 33° SSE
USA 81 4.1 00:21:53 10° NNW 00:27:09 67° W 00:29:41 31° SSW
Cosmos 724 4.4 00:24:16 25° SW 00:28:05 87° SE 00:34:23 10° NE
Cosmos 2100 Rocket 4.4 00:22:35 10° N 00:28:50 60° ENE 00:33:57 16° SSE
Cosmos 1726 2.3 00:25:50 10° N 00:29:32 67° ENE 00:30:59 34° SSE
YAOGAN 11 4.0 00:28:55 34° S 00:30:46 81° WSW 00:35:05 10° NNW
Meteor 1-23 Rocket 4.5 00:28:39 27° SSW 00:31:51 66° WNW 00:37:41 10° N
Cosmos 1400 Rocket 3.0 00:35:07 10° NNW 00:39:09 57° W 00:40:29 37° SSW
Cosmos 1758 3.6 00:35:58 10° N 00:40:04 67° ENE 00:42:13 26° SSE
Cosmos 1975 Rocket 4.4 00:39:57 17° SE 00:42:33 31° E 00:46:23 10° NNE
Cosmos 1842 3.2 00:42:19 39° SSW 00:43:41 77° WNW 00:47:35 10° N
Cosmos 1378 Rocket 3.4 00:43:15 34° SSW 00:45:06 86° W 00:49:28 10° N
Cosmos 1315 Rocket 3.2 00:41:22 10° N 00:45:20 61° ENE 00:47:45 22° SSE
Cosmos 2251 Rocket 3.5 00:42:07 10° NNW 00:47:24 87° ENE 00:51:33 17° SSE
COSMOS 2455 2.9 00:44:52 10° NW 00:50:47 60° WSW 00:55:11 18° SSE
Cosmos 2221 Rocket 4.5 00:49:20 24° SW 00:51:31 40° WNW 00:55:51 10° N
Cosmos 614 Rocket 4.0 00:48:56 10° NNW 00:54:04 78° ENE 00:58:47 12° SSE
ISS -3.9 00:51:31 13° W 00:54:28 68° S 00:57:50 10° ESE
Okean 2 3.3 00:53:24 33° SSW 00:55:13 83° W 00:59:26 10° N
SeaSat 1 2.7 00:53:42 10° NNE 00:58:37 66° NW 01:01:44 22° SW
Meteor 2-20 4.5 00:55:02 25° SSW 00:58:50 79° WNW 01:05:03 10° N
Cosmos 1727 Rocket 4.0 00:55:09 24° SSW 00:59:10 84° WNW 01:05:34 10° N
Cosmos 2219 3.2 00:58:20 10° NNW 01:04:02 76° WSW 01:09:19 12° SSE
Okean 1 Rocket 3.5 00:59:52 10° NNW 01:04:05 46° W 01:05:54 28° SSW
SL-16 R/B 2.6 01:00:16 13° SSE 01:05:57 87° ENE 01:12:16 10° NNW
CZ-4 R/B 3.9 01:01:38 10° NNE 01:06:31 76° WNW 01:09:13 26° SSW
Cosmos 2263 Rocket 4.0 01:07:21 10° NNW 01:12:28 34° NE 01:17:36 10° ESE
Cosmos 1674 Rocket 4.3 01:12:00 24° SW 01:14:16 41° WNW 01:18:33 10° N
Cosmos 1707 2.6 01:12:57 30° SSW 01:14:44 80° W 01:18:36 10° N
Cosmos 2369 Rocket 4.3 01:12:23 10° W 01:16:42 22° NNW 01:21:05 10° NNE
ADEOS Rocket 4.2 01:09:28 10° SE 01:16:51 57° ENE 01:24:25 10° N
Cosmos 371 Rocket 3.7 01:14:23 22° S 01:17:22 56° ESE 01:22:10 10° NNE
ADEOS II 3.3 01:13:36 10° NNE 01:18:24 34° E 01:23:07 10° SSE
Helios 1B rocket 2.8 01:15:52 10° NNE 01:19:58 59° ESE 01:22:33 21° S
USA 215 4.0 01:17:23 17° S 01:21:15 30° SW 01:26:54 10° WNW
ATLAS CENTAUR R/B 3.1 01:18:35 10° W 01:21:48 26° NNW 01:25:10 10° NNE
NPP 4.0 01:18:30 10° NNE 01:23:52 60° ESE 01:28:00 17° S
Cosmos 1725 Rocket 4.1 01:18:20 10° N 01:24:39 80° E 01:30:53 10° SSE
CZ-2D R/B 2.3 01:19:48 10° NNE 01:25:14 73° ESE 01:29:09 19° S
Cosmos 1908 3.3 01:21:39 10° N 01:25:34 78° E 01:28:34 16° SSE
Cosmos 1459 Rocket 4.1 01:23:13 10° NNW 01:29:25 62° W 01:34:06 18° S
APEX 3.6 01:25:21 10° NW 01:29:35 84° WSW 01:34:56 10° SSE
AQUA 4.3 01:27:12 10° NNE 01:31:55 57° E 01:35:39 16° S
Resurs 1-4 Rocket 2.1 01:26:50 10° NNE 01:32:09 83° ESE 01:36:01 19° SSW
Cosmos 1544 Rocket 3.6 01:27:46 10° N 01:32:12 78° E 01:36:16 12° SSE
USA 281 3.5 01:28:44 16° S 01:33:46 46° WSW 01:40:05 10° NW
Cosmos 2233 Rocket 4.4 01:27:41 10° N 01:33:54 64° ENE 01:40:00 10° SSE
Lacrosse 5 1.9 01:29:52 16° WSW 01:33:58 89° NNW 01:39:06 10° ENE
Meteor 1-16 Rocket 4.3 01:32:19 10° NNW 01:38:16 74° W 01:43:40 12° S
Meteor 1-28 Rocket 4.1 01:35:01 10° SE 01:38:35 47° ENE 01:42:11 10° N
Cosmos 2016 Rocket 4.0 01:32:42 10° NNW 01:38:59 75° W 01:44:39 12° S
Cosmos 1953 2.3 01:35:09 10° NNW 01:39:07 65° W 01:41:52 19° S
Lacrosse 4 Rocket 2.8 01:37:27 14° S 01:40:34 31° ESE 01:44:29 10° NE
Cosmos 1697 Rocket 3.2 01:37:11 16° S 01:41:29 51° ESE 01:46:55 10° NE
Cosmos 407 Rocket 3.5 01:36:38 10° NNW 01:42:00 81° WSW 01:47:21 10° SSE
Cosmos 1455 Rocket 3.2 01:38:02 10° NNW 01:42:17 55° W 01:45:16 19° SSW
CZ-3B R/B 3.7 01:23:23 10° SW 01:43:38 71° SSE 01:48:12 10° ENE
Cosmos 2173 Rocket 4.4 01:39:25 10° NNW 01:45:19 48° W 01:49:59 16° SSW
Cosmos 2061 Rocket 4.1 01:41:31 10° NNW 01:47:48 70° W 01:53:55 11° S
Timation 2 Rocket 4.3 01:42:45 10° NW 01:48:19 41° WSW 01:53:37 11° S
Landsat 4 3.9 01:45:05 10° NNE 01:48:50 66° ESE 01:51:42 16° S
Cosmos 1980 Rocket 3.3 01:48:59 10° S 01:54:07 37° ESE 01:59:17 10° NE
USA 276 2.4 01:52:28 22° SW 01:54:12 45° S 01:57:17 10° E
Cosmos 1536 Rocket 4.3 01:51:37 10° S 01:55:52 50° E 02:00:12 10° NNE
GP-B 3.5 01:51:49 10° N 01:56:15 65° E 02:00:39 10° S
Cosmos 2227 Rocket 2.8 01:55:53 10° NW 02:00:58 35° WSW 02:05:43 11° S
Meteor 1-29 2.9 01:57:53 10° NNE 02:01:18 89° E 02:03:52 17° SSW
Cosmos 2297 Rocket 3.2 01:58:49 10° NW 02:03:32 27° WSW 02:07:14 14° SSW
Cosmos 1726 4.3 02:02:31 10° WNW 02:04:09 13° W 02:05:25 11° WSW
SL-19 R/B 4.3 02:02:43 10° NNE 02:08:25 77° WNW 02:13:13 13° SSW
Cosmos 1674 3.1 02:06:17 17° SW 02:09:01 49° WNW 02:12:46 10° N
Cosmos 1954 Rocket 4.1 02:04:54 10° NNW 02:10:13 86° ENE 02:15:31 10° SSE
CZ-4C R/B 3.5 02:09:02 10° SSE 02:13:19 90° NE 02:17:24 10° NNW
Cosmos 2369 4.0 02:08:56 12° SSW 02:14:10 67° ESE 02:19:52 10° NE
Cosmos 2082 4.0 02:11:09 10° NW 02:16:36 48° WSW 02:22:03 10° S
ARGOS Delta rocket 3.9 02:12:11 10° N 02:16:46 66° WNW 02:21:13 12° SSW
SL-14 R/B 3.4 02:13:00 11° S 02:16:49 78° E 02:20:48 10° NNE
Cosmos 405 3.6 02:13:25 10° N 02:16:56 59° ENE 02:20:23 10° SSE
Cosmos 2056 Rocket 3.9 02:12:38 10° S 02:17:38 59° ESE 02:22:42 10° NNE
Cosmos 1975 Rocket 4.0 02:17:06 14° SW 02:20:22 34° WNW 02:24:21 10° N
Spot 1 4.4 02:15:57 10° SSE 02:20:43 81° WSW 02:25:47 10° NNW
Cosmos 304 Rocket 3.8 02:17:54 13° SSW 02:22:08 77° WNW 02:26:58 10° NNE
Cosmos 2123 Rocket 4.3 02:19:49 12° SSW 02:25:27 55° WNW 02:31:36 10° N
Cosmos 1656 4.2 02:22:25 12° SW 02:27:26 50° NW 02:32:51 10° NNE
Cosmos 1626 2.4 02:24:28 13° SSW 02:27:38 54° WNW 02:31:17 10° N
SL-16 R/B 4.3 02:25:15 10° SSE 02:29:29 22° ESE 02:33:43 10° NE
Cosmos 1371 Rocket 4.1 02:25:13 10° SSW 02:30:25 82° ESE 02:35:39 10° NNE
ISS -2.9 02:27:59 10° W 02:31:00 30° SSW 02:34:00 10° SE
Aureole 2 Rocket 1.6 02:30:02 10° NNW 02:32:43 83° WSW 02:35:24 10° SSE
IRS-1D 3.7 02:28:18 10° NNE 02:33:40 79° WNW 02:39:00 10° SSW
Cosmos 1300 2.9 02:31:37 10° NNW 02:35:22 53° W 02:39:05 10° S
SeaSat 1 4.5 02:31:55 10° NNE 02:35:27 20° NNW 02:38:57 10° WNW
Cosmos 1140 Rocket 4.1 02:32:08 10° NW 02:36:52 36° WSW 02:41:35 10° SSW
IDEFIX/ARIANE 42P 2.7 02:34:32 10° NNE 02:39:50 80° ESE 02:45:07 10° SSW
Cosmos 1741 Rocket 4.5 02:39:08 10° NNW 02:44:21 67° ENE 02:49:34 10° SE
Cosmos 1025 Rocket 3.9 02:41:18 10° SW 02:45:19 36° WNW 02:49:23 10° N
Cosmos 1346 Rocket 4.5 02:45:33 10° SSE 02:49:03 32° E 02:52:36 10° NNE
SL-16 R/B 3.9 02:45:45 10° SW 02:50:22 21° W 02:55:01 10° NW
Cosmos 389 Rocket 3.9 02:47:00 10° N 02:50:23 42° ENE 02:53:42 10° SE
SL-08 R/B 3.3 02:45:53 10° SSE 02:50:35 83° WSW 02:55:15 10° NNW
Cosmos 1455 3.2 02:47:40 10° N 02:51:26 51° ENE 02:55:12 10° SSE
Meteor 2-10 Rocket 3.7 02:45:50 10° NNW 02:51:39 82° WSW 02:57:12 10° S
Helios 1B rocket 4.2 02:51:48 10° NNW 02:54:52 20° WNW 02:57:55 10° WSW
Cosmos 2263 Rocket 2.2 02:51:13 10° NW 02:56:48 63° WSW 03:02:23 10° SSE
Cosmos 2322 Rocket 4.0 02:52:06 10° SSE 02:56:49 28° ESE 03:01:33 10° NE
ADEOS II 2.7 02:53:14 10° N 02:58:14 45° WNW 03:03:12 10° SW
IRS-P3 4.2 02:52:54 10° NNE 02:58:18 86° ESE 03:03:40 10° SSW
Cosmos 1844 Rocket 4.2 02:53:38 10° NNW 02:59:02 44° NE 03:04:25 10° ESE
Cosmos 1892 Rocket 4.4 02:56:12 10° S 03:00:24 50° E 03:04:37 10° NNE
ARIANE 5 R/B 2.8 02:55:47 10° NNE 03:00:58 75° ESE 03:06:04 10° S
Meteor 1-24 Rocket 3.7 02:56:40 10° SSW 03:02:12 77° WNW 03:07:36 10° N
ADEOS Rocket 4.0 02:55:20 10° SSW 03:02:29 44° W 03:09:53 10° NNW
